User: anonymous
Location: Unspecified
(0.0000°N, 0.0000°E)
Time: 18:00:10
(UTC+02:00)
Language:

Cosmos 1263 Rocket - Orbit

View from above orbital plane
View from above orbital plane
View from above satellite
View from above satellite

Ground track
Ground track

The orbit data is extracted from the following two-line orbital elements,

1 12389U 81033B   14233.47404841  .00029728  00000-0  43125-3 0   495
2 12389 082.8719 044.5316 0199908 239.0141 176.7427 15.35831765719734
Epoch (UTC): 21 August 2014 11:22:37
Eccentricity: 0.0199908
inclination: 82.8719°
perigee height: 322 km
apogee height: 595 km
right ascension of ascending node: 44.5316°
argument of perigee: 239.0141°
revolutions per day: 15.35831765
mean anomaly at epoch: 176.7427°
orbit number at epoch: 71973

The dashed part of the orbit path shows where the satellite is in the earth's shadow,  

DLR